Location: Bouchavesnes-Bergen
(49.9859°N, 2.9203°E)
Time: 11:50:30
(UTC+00:00)

Iridium 4 Rocket - Pass Details

Date: 09 March 2021
Orbit: 585 x 904 km, 86.9° (Epoch: 13 April)

Event Time Altitude Azimuth Distance (km) Brightness Sun altitude
Exits shadow 03:49:25 27° 332° (NNW) 1,201 4.4 -23.7°
Drops below altitude 10° 03:51:40 10° 351° (N) 1,979 5.8 -23.4°
Sets 03:53:54 0° 358° (N) 2,862 6.7 -23.1°
